Weather History for KTBN - September, 2013

Change the Weather History Date:

Monday, September 23, 2013

  Actual Average (KVIH) Record (KVIH)
Temperature  
Mean Temperature 62 °F 65 °F  
Max Temperature 76 °F 76 °F 92 °F (1901)
Min Temperature 48 °F 54 °F 36 °F (1897)
Degree Days  
Heating Degree Days 3 3  
Month to date heating degree days 30  
Since 1 July heating degree days 33  
Cooling Degree Days 0 3  
Month to date cooling degree days 125  
Year to date cooling degree days 1202  
Growing Degree Days 12 (Base 50)    
Moisture  
Dew Point 53 °F    
Average Humidity 76    
Maximum Humidity 100    
Minimum Humidity 39    
Precipitation  
Precipitation 0.00 in 0.12 in 3.48 in (1970)
Month to date precipitation 3.19  
Year to date precipitation 32.74  
Sea Level Pressure  
Sea Level Pressure 29.95 in    
Wind  
Wind Speed 7 mph (SE)    
Max Wind Speed 12 mph    
Max Gust Speed -    
Visibility 10 miles    
Events      
T = Trace of Precipitation, MM = Missing Value Source: NWS Daily Summary

Daily Weather History Graph

Daily Weather History Graph

Search for Another Location

Airport or City:

Trip Planner

Search our weather history database for the weather conditions in past years. The results will help you decide how hot, cold, wet, or windy it might be!

Date:

Astronomy

Sep. 23, 2013 Rise Set
Actual Time 6:57 AM CDT 7:03 PM CDT
Civil Twilight 6:31 AM CDT 7:29 PM CDT
Nautical Twilight 6:00 AM CDT 8:00 PM CDT
Astronomical Twilight 5:29 AM CDT 8:31 PM CDT
Moon 9:41 PM CDT (9/23) 11:11 AM CDT (9/23)
Length of Visible Light 12h 58m
Length of Day
12h 06m
Waning Gibbous, 81% of the Moon is Illuminated
Sep 23
Waning Gibbous
Sep 26
Last Quarter
Oct 4
New
Oct 11
First Quarter
Oct 18
Full

Hourly Weather History & Observations

Time (CDT) Temp. Dew Point Humidity Pressure Visibility Wind Dir Wind Speed Gust Speed Precip Events Conditions
12:58 AM 54.5 °F 54.1 °F 99% 29.95 in 10.0 mi SE 5.8 mph - N/A   Clear
1:58 AM 52.9 °F 52.7 °F 99% 29.95 in 10.0 mi SE 6.9 mph - N/A   Clear
2:58 AM 51.3 °F 51.3 °F 100% 29.94 in 10.0 mi SE 5.8 mph - N/A   Clear
3:58 AM 50.2 °F 50.2 °F 100% 29.95 in 10.0 mi SSE 4.6 mph - N/A   Clear
4:58 AM 49.6 °F 49.6 °F 100% 29.96 in 10.0 mi SSE 5.8 mph - N/A   Clear
5:58 AM 49.3 °F 49.3 °F 100% 29.97 in 10.0 mi SSE 5.8 mph - N/A   Clear
6:58 AM 48.9 °F 48.9 °F 100% 29.99 in 10.0 mi SE 4.6 mph - N/A   Clear
7:58 AM 52.2 °F 52.2 °F 100% 30.01 in 10.0 mi SE 5.8 mph - N/A   Clear
8:58 AM 56.7 °F 52.9 °F 87% 30.00 in 10.0 mi SE 8.1 mph - N/A   Clear
9:58 AM 61.3 °F 53.4 °F 75% 30.01 in 10.0 mi SE 8.1 mph - N/A   Clear
10:58 AM 66.9 °F 53.8 °F 63% 29.99 in 10.0 mi SSE 11.5 mph - N/A   Clear
11:58 AM 69.8 °F 54.9 °F 59% 29.99 in 10.0 mi SSE 10.4 mph - N/A   Clear
12:58 PM 72.9 °F 54.1 °F 52% 29.96 in 10.0 mi Variable 4.6 mph - N/A   Clear
1:58 PM 73.4 °F 54.0 °F 50% 29.94 in 10.0 mi ESE 8.1 mph - N/A   Clear
2:58 PM 75.4 °F 53.2 °F 46% 29.92 in 10.0 mi SE 9.2 mph - N/A   Clear
3:58 PM 76.1 °F 49.6 °F 39% 29.91 in 10.0 mi ESE 11.5 mph - N/A   Clear
4:58 PM 76.3 °F 49.5 °F 39% 29.89 in 10.0 mi SE 10.4 mph - N/A   Clear
5:58 PM 75.0 °F 52.3 °F 45% 29.88 in 10.0 mi SE 11.5 mph - N/A   Clear
6:58 PM 68.9 °F 54.1 °F 59% 29.89 in 10.0 mi SE 9.2 mph - N/A   Clear
7:58 PM 65.3 °F 54.9 °F 69% 29.90 in 10.0 mi SE 6.9 mph - N/A   Clear
8:58 PM 61.3 °F 55.6 °F 81% 29.92 in 10.0 mi SE 3.5 mph - N/A   Clear
9:58 PM 58.8 °F 55.0 °F 87% 29.93 in 10.0 mi SE 5.8 mph - N/A   Clear
10:58 PM 59.2 °F 54.9 °F 86% 29.94 in 10.0 mi SE 6.9 mph - N/A   Clear
11:58 PM 56.8 °F 54.5 °F 92% 29.94 in 10.0 mi SSE 5.8 mph - N/A   Clear